QPF
0.00 0.00 0.00 0.00 0.00 0.00 0.00 0.00 0.00 0.00 0.00 0.00 0.00 0.00 0.00 0.00 0.00 0.00 0.00 0.00 0.00 0.00 0.00 0.00 0.00 0.00 0.05 0.02 0.00 0.00 0.01 0.00 0.00
0.00 0.00 0.00 0.00 0.00 0.00 0.00 0.00 0.00 0.00 0.00 0.00 0.00 0.00 0.00 0.00 0.00 0.00 0.00 0.00 0.00 0.00 0.00 0.00 0.00 0.00 0.00 0.00 0.02 0.01 0.00 0.00 0.00
0.00 0.00 0.00 0.00 0.00 0.00 0.00 0.00 0.00 0.00 0.00 0.00 0.00 0.00 0.00 0.00 0.00 0.00 0.00 0.00 0.00 0.00 0.00 0.00 0.00 0.00 0.00 0.00 0.00 0.00 0.00 0.00 0.00
0.00 0.00 0.00 0.00 0.00 0.03 0.03 0.00 0.00 0.00 0.00 0.00 0.00 0.00 0.00 0.00 0.00 0.00 0.00 0.00 0.00 0.00 0.00 0.00 0.00 0.00 0.00 0.00 0.00 0.00 0.01 0.00 0.00
0.00 0.00 0.00 0.00 0.00 0.03 0.02 0.01 0.00 0.00 0.00 0.00 0.00 0.00 0.00 0.00 0.00 0.00 0.00 0.00 0.00 0.00 0.00 0.00 0.00 0.00 0.00 0.00 0.00 0.00 0.01 0.05 0.00
0.00 0.00 0.00 0.00 0.00 0.00 0.02 0.01 0.00 0.00 0.00 0.00 0.00 0.00 0.00 0.00 0.00 0.00 0.00 0.00 0.00 0.00 0.00 0.00 0.00 0.00 0.00 0.00 0.00 0.00 0.00 0.01 0.02
0.00 0.00 0.00 0.00 0.00 0.03 0.16 0.09 0.02 0.00 0.01 0.00 0.00 0.00 0.00 0.00 0.00 0.00 0.00 0.00 0.00 0.00 0.00 0.00 0.00 0.00 0.00 0.00 0.00 0.00 0.00 0.00 0.00
0.00 0.00 0.00 0.00 0.00 0.00 0.03 0.07 0.04 0.01 0.01 0.01 0.00 0.00 0.00 0.00 0.00 0.00 0.00 0.00 0.00 0.00 0.00 0.00 0.00 0.00 0.00 0.00 0.00 0.00 0.00 0.00 0.00
0.00 0.00 0.00 0.00 0.00 0.00 0.00 0.05 0.09 0.06 0.02 0.01 0.01 0.00 0.00 0.00 0.00 0.00 0.00 0.00 0.00 0.00 0.00 0.00 0.00 0.00 0.00 0.00 0.00 0.00 0.00 0.00 0.00
0.00 0.00 0.00 0.00 0.00 0.00 0.00 0.00 0.02 0.08 0.07 0.02 0.00 0.01 0.00 0.00 0.00 0.00 0.00 0.00 0.00 0.00 0.00 0.00 0.00 0.00 0.00 0.00 0.00 0.00 0.00 0.00 0.00
0.00 0.00 0.00 0.00 0.00 0.00 0.00 0.00 0.00 0.02 0.05 0.02 0.00 0.00 0.00 0.00 0.00 0.00 0.00 0.00 0.00 0.00 0.00 0.00 0.00 0.00 0.00 0.00 0.00 0.00 0.00 0.00 0.00
0.00 0.00 0.00 0.00 0.00 0.00 0.00 0.00 0.00 0.01 0.01 0.00 0.01 0.01 0.00 0.00 0.00 0.00 0.00 0.00 0.00 0.00 0.00 0.00 0.00 0.00 0.00 0.00 0.00 0.00 0.00 0.00 0.00
0.00 0.00 0.00 0.00 0.00 0.00 0.00 0.00 0.00 0.00 0.00 0.00 0.01 0.01 0.00 0.00 0.00 0.00 0.00 0.01 0.01 0.00 0.00 0.00 0.00 0.00 0.00 0.00 0.00 0.00 0.00 0.00 0.00
0.00 0.00 0.00 0.00 0.00 0.00 0.00 0.00 0.00 0.00 0.00 0.00 0.01 0.00 0.00 0.01 0.00 0.00 0.00 0.00 0.00 0.01 0.01 0.00 0.00 0.00 0.00 0.00 0.00 0.00 0.00 0.00 0.00
0.00 0.00 0.00 0.00 0.00 0.00 0.00 0.00 0.00 0.00 0.00 0.00 0.00 0.00 0.00 0.00 0.00 0.00 0.00 0.00 0.01 0.01 0.02 0.01 0.00 0.00 0.00 0.00 0.00 0.00 0.00 0.00 0.00
0.00 0.00 0.00 0.00 0.00 0.00 0.00 0.00 0.00 0.00 0.00 0.00 0.00 0.00 0.00 0.00 0.00 0.01 0.00 0.00 0.00 0.02 0.03 0.02 0.04 0.00 0.00 0.00 0.00 0.00 0.00 0.00 0.00
0.00 0.00 0.00 0.00 0.00 0.00 0.00 0.00 0.00 0.00 0.00 0.00 0.00 0.00 0.00 0.00 0.00 0.00 0.00 0.01 0.00 0.00 0.00 0.01 0.01 0.00 0.00 0.00 0.00 0.00 0.00 0.00 0.00
0.00 0.00 0.00 0.00 0.00 0.00 0.00 0.00 0.00 0.00 0.00 0.00 0.00 0.00 0.00 0.00 0.00 0.00 0.00 0.00 0.00 0.00 0.00 0.00 0.00 0.00 0.00 0.00 0.00 0.01 0.01 0.01 0.00
0.00 0.00 0.00 0.00 0.00 0.00 0.00 0.00 0.00 0.00 0.00 0.00 0.00 0.00 0.00 0.00 0.00 0.00 0.00 0.00 0.00 0.00 0.00 0.02 0.01 0.04 0.03 0.00 0.00 0.02 0.05 0.05 0.04
0.00 0.00 0.00 0.00 0.00 0.00 0.00 0.00 0.00 0.00 0.00 0.00 0.00 0.00 0.00 0.00 0.00 0.00 0.00 0.00 0.00 0.00 0.00 0.01 0.02 0.01 0.04 0.02 0.02 0.01 0.08 0.15 0.11
MSLP
1009.47 1009.91 1010.17 1010.71 1011.52 1012.27 1013.04 1013.92 1014.72 1015.41 1016.07 1016.69 1017.37 1017.89 1018.20 1018.67 1019.22 1019.51 1019.53 1019.75 1019.84 1020.03 1020.09 1020.30 1020.45 1020.86 1021.13 1021.49 1021.80 1022.09 1022.30 1022.22 1022.37
1009.93 1009.78 1010.02 1010.37 1011.05 1011.79 1012.42 1013.35 1014.20 1014.81 1015.47 1016.02 1016.65 1017.12 1017.76 1018.31 1018.84 1019.19 1019.25 1019.49 1019.80 1019.85 1019.93 1019.96 1020.34 1020.56 1020.85 1021.28 1021.56 1021.79 1022.08 1022.09 1022.29
1010.73 1010.26 1010.45 1010.59 1010.96 1011.72 1012.21 1012.84 1013.67 1014.44 1014.93 1015.30 1015.65 1016.37 1017.05 1017.65 1018.20 1018.73 1018.98 1019.28 1019.45 1019.59 1019.57 1019.75 1020.01 1020.32 1020.50 1020.85 1021.19 1021.50 1021.82 1021.99 1022.07
1012.69 1011.65 1011.46 1011.44 1011.56 1011.97 1012.31 1012.73 1013.31 1013.83 1014.49 1015.03 1015.56 1016.06 1016.50 1017.01 1017.48 1018.16 1018.62 1018.87 1019.09 1019.32 1019.34 1019.43 1019.70 1019.98 1020.34 1020.54 1020.86 1021.08 1021.60 1021.76 1021.88
1015.01 1014.32 1013.85 1013.38 1012.95 1013.06 1013.11 1013.23 1013.30 1013.54 1014.01 1014.53 1014.95 1015.35 1015.94 1016.37 1016.59 1017.46 1018.15 1018.28 1018.50 1018.90 1019.05 1018.96 1019.23 1019.53 1019.96 1020.25 1020.43 1020.80 1021.09 1021.38 1021.47
1016.83 1016.32 1015.85 1015.63 1015.33 1015.40 1014.84 1014.28 1014.00 1013.99 1014.07 1014.09 1014.69 1015.27 1015.66 1016.00 1016.39 1016.75 1017.32 1017.66 1017.92 1018.39 1018.75 1018.89 1018.83 1019.07 1019.43 1019.71 1020.01 1020.34 1020.54 1020.85 1021.03
1018.08 1017.85 1017.66 1017.45 1017.03 1017.05 1016.84 1016.49 1015.69 1015.17 1014.70 1014.17 1014.15 1014.63 1015.15 1015.34 1015.78 1016.15 1016.40 1016.93 1017.32 1017.73 1018.06 1018.44 1018.74 1018.84 1018.95 1019.21 1019.49 1019.81 1020.08 1020.32 1020.53
1018.87 1018.85 1018.80 1018.89 1018.76 1018.50 1018.11 1017.71 1017.07 1016.30 1015.61 1015.18 1014.59 1014.25 1014.41 1014.44 1014.85 1015.32 1015.85 1016.28 1016.57 1016.96 1017.45 1017.68 1018.01 1018.46 1018.69 1018.83 1019.01 1019.20 1019.55 1019.82 1019.97
1019.80 1019.94 1019.93 1019.88 1019.68 1019.44 1019.28 1019.00 1018.43 1017.42 1016.33 1015.62 1015.28 1014.67 1014.03 1014.05 1014.47 1014.77 1015.05 1015.45 1015.85 1016.19 1016.56 1016.94 1017.33 1017.71 1017.97 1018.24 1018.32 1018.42 1018.87 1019.09 1019.29
1020.76 1020.91 1020.83 1020.67 1020.37 1020.04 1019.82 1019.64 1019.13 1018.30 1017.23 1016.23 1015.38 1014.49 1014.01 1013.78 1013.95 1014.21 1014.47 1014.77 1015.13 1015.39 1015.73 1016.06 1016.40 1016.76 1017.18 1017.28 1017.52 1017.80 1018.18 1018.44 1018.42
1021.63 1021.61 1021.46 1021.17 1020.79 1020.34 1020.02 1019.69 1019.18 1018.57 1017.63 1016.58 1015.51 1014.01 1013.61 1013.50 1013.56 1013.72 1013.93 1014.21 1014.31 1014.45 1014.88 1015.21 1015.42 1015.74 1016.16 1016.48 1016.60 1016.94 1017.31 1017.76 1018.02
1022.17 1022.13 1021.97 1021.59 1021.20 1020.78 1020.30 1019.79 1019.25 1018.53 1017.63 1016.99 1016.03 1015.22 1014.41 1013.79 1013.25 1013.29 1013.34 1013.40 1013.47 1013.65 1014.07 1014.29 1014.45 1014.74 1015.09 1015.55 1015.67 1016.02 1016.48 1017.03 1017.28
1022.15 1022.26 1021.89 1021.52 1021.21 1020.77 1020.24 1019.81 1019.39 1018.89 1018.13 1017.31 1016.42 1015.58 1014.93 1014.28 1013.63 1013.25 1012.83 1012.77 1012.81 1013.05 1013.39 1013.52 1013.73 1013.85 1014.06 1014.33 1014.57 1015.03 1015.43 1016.07 1016.22
1022.83 1022.46 1022.03 1021.41 1020.72 1020.37 1020.19 1019.93 1019.52 1018.91 1018.23 1017.66 1016.79 1016.03 1015.28 1014.18 1013.65 1013.03 1012.72 1012.59 1012.27 1012.46 1012.59 1012.67 1012.80 1013.05 1013.19 1013.37 1013.60 1013.86 1014.26 1014.76 1015.20
1022.50 1022.26 1021.89 1021.53 1020.59 1019.64 1019.80 1019.78 1019.48 1018.89 1018.31 1017.66 1016.98 1015.80 1014.83 1014.07 1013.61 1013.28 1012.45 1011.99 1011.96 1011.75 1011.81 1012.02 1012.06 1012.19 1012.24 1012.19 1012.58 1012.91 1013.09 1013.36 1013.76
1022.19 1022.08 1021.65 1021.28 1020.71 1019.91 1019.33 1019.25 1019.24 1018.66 1018.21 1017.92 1017.03 1016.00 1014.83 1014.28 1013.69 1013.61 1012.57 1011.66 1011.18 1011.23 1011.46 1011.19 1011.27 1011.22 1011.00 1010.89 1011.01 1011.61 1011.99 1012.35 1012.58
1022.17 1021.99 1021.80 1021.41 1020.69 1019.92 1019.34 1019.02 1018.76 1018.43 1018.03 1017.73 1017.30 1016.18 1014.98 1014.26 1013.79 1013.23 1012.29 1011.73 1010.89 1010.51 1010.39 1010.61 1010.56 1010.39 1010.13 1010.10 1010.03 1010.17 1010.57 1011.24 1012.02
1022.07 1021.93 1021.69 1021.39 1020.61 1019.81 1019.04 1018.73 1018.22 1017.95 1017.51 1017.06 1016.42 1015.91 1014.93 1014.14 1013.51 1012.49 1011.98 1011.29 1010.77 1010.36 1009.88 1009.65 1009.52 1009.29 1009.29 1009.12 1008.86 1008.90 1009.53 1009.81 1010.05
1021.80 1021.29 1021.03 1020.69 1020.16 1019.56 1018.96 1018.34 1017.83 1017.29 1016.99 1016.39 1015.58 1014.75 1014.13 1013.47 1012.96 1012.15 1011.87 1011.07 1010.49 1010.01 1009.79 1009.59 1009.47 1009.13 1008.97 1008.01 1008.26 1008.60 1008.89 1009.39 1009.70
1021.07 1020.88 1020.49 1020.01 1019.53 1019.10 1018.69 1018.10 1017.32 1016.92 1016.38 1015.91 1015.06 1014.17 1013.36 1012.89 1012.66 1012.12 1011.95 1011.11 1010.43 1009.32 1008.43 1008.52 1008.23 1008.19 1008.11 1007.98 1007.89 1008.10 1008.22 1008.68 1009.18
Thickness
5792 5788 5788 5785 5782 5781 5779 5778 5777 5775 5773 5771 5771 5771 5771 5771 5769 5769 5770 5768 5768 5767 5770 5770 5769 5768 5767 5765 5763 5761 5761 5762 5763
5781 5787 5788 5786 5784 5783 5782 5779 5777 5776 5774 5774 5773 5772 5772 5772 5770 5770 5770 5769 5769 5770 5770 5772 5770 5770 5769 5767 5766 5765 5763 5764 5763
5774 5781 5783 5785 5785 5780 5780 5781 5779 5776 5776 5775 5778 5777 5774 5773 5772 5771 5772 5771 5770 5771 5773 5772 5772 5772 5772 5771 5769 5768 5766 5767 5766
5755 5770 5773 5776 5780 5779 5778 5779 5778 5777 5775 5772 5771 5774 5775 5775 5775 5772 5771 5772 5772 5773 5774 5775 5774 5774 5773 5774 5773 5772 5770 5770 5771
5732 5743 5749 5757 5766 5768 5770 5770 5775 5777 5775 5773 5772 5773 5773 5775 5778 5774 5771 5774 5775 5775 5775 5777 5777 5777 5776 5776 5776 5776 5776 5774 5776
5711 5720 5728 5733 5737 5742 5752 5761 5765 5768 5772 5775 5771 5769 5769 5771 5774 5775 5774 5774 5776 5775 5775 5776 5778 5779 5779 5779 5779 5778 5780 5779 5779
5696 5703 5708 5714 5720 5723 5727 5734 5746 5756 5761 5771 5771 5771 5769 5772 5773 5776 5777 5777 5776 5776 5776 5775 5776 5777 5780 5782 5782 5781 5781 5781 5781
5685 5687 5692 5696 5701 5707 5713 5717 5727 5739 5749 5756 5764 5770 5771 5776 5778 5779 5778 5778 5779 5778 5777 5778 5778 5777 5779 5781 5783 5784 5782 5782 5783
5669 5672 5676 5679 5687 5694 5699 5702 5710 5723 5737 5746 5753 5760 5769 5771 5773 5774 5777 5779 5780 5780 5780 5780 5780 5780 5780 5781 5785 5787 5784 5785 5785
5650 5653 5659 5665 5672 5679 5685 5691 5698 5709 5722 5733 5740 5749 5758 5766 5769 5769 5774 5776 5777 5779 5780 5781 5781 5781 5781 5784 5786 5787 5785 5784 5789
5632 5637 5643 5650 5659 5668 5674 5681 5690 5700 5711 5720 5730 5743 5751 5759 5763 5766 5769 5772 5776 5779 5779 5779 5782 5783 5784 5785 5789 5788 5787 5785 5787
5614 5622 5628 5636 5644 5653 5662 5671 5679 5688 5700 5710 5717 5727 5739 5749 5758 5762 5765 5769 5774 5777 5776 5779 5782 5783 5784 5785 5790 5789 5787 5784 5787
5598 5604 5615 5623 5631 5639 5649 5659 5667 5675 5685 5697 5706 5715 5723 5735 5745 5752 5760 5766 5771 5774 5774 5776 5779 5782 5786 5788 5791 5790 5788 5785 5789
5578 5586 5595 5609 5621 5629 5634 5642 5652 5662 5672 5681 5692 5702 5707 5722 5734 5744 5750 5757 5766 5768 5771 5774 5777 5779 5783 5787 5791 5793 5790 5787 5789
5564 5569 5578 5587 5604 5620 5624 5628 5636 5646 5656 5668 5678 5691 5702 5712 5722 5730 5740 5749 5756 5763 5767 5769 5773 5775 5779 5786 5788 5788 5790 5789 5789
5550 5553 5560 5570 5581 5597 5609 5616 5621 5632 5641 5649 5662 5675 5690 5700 5712 5716 5729 5741 5750 5754 5757 5765 5769 5772 5778 5784 5789 5789 5787 5787 5788
5534 5535 5539 5547 5560 5574 5589 5597 5606 5616 5625 5632 5643 5658 5675 5687 5696 5706 5719 5730 5742 5749 5756 5758 5764 5769 5776 5779 5784 5790 5792 5789 5785
5515 5519 5522 5527 5538 5551 5566 5578 5589 5598 5610 5620 5632 5643 5660 5675 5687 5700 5710 5723 5731 5740 5749 5757 5764 5772 5774 5777 5784 5791 5789 5790 5790
5498 5506 5511 5516 5521 5529 5541 5553 5568 5580 5592 5605 5621 5635 5650 5664 5675 5690 5699 5711 5719 5729 5736 5742 5750 5760 5768 5783 5785 5783 5782 5778 5778
5489 5489 5495 5503 5508 5514 5517 5527 5541 5559 5571 5585 5603 5621 5639 5653 5660 5674 5682 5696 5707 5720 5736 5738 5747 5753 5761 5768 5777 5775 5775 5771 5767